Simultaneous Nadir Overpasses (SNOs) Predictions

Prediction of SNOs between AQUA and GOES-15 Satellite Orbit:

Table of predicted SNOs for the next 14.0 days since TLE Epoch: 12/5/2020
Index Date Time (AQUA) AQUA Lat,Lon GOES-15 Lat,Lon Distance(km) Time Diff (sec)
1 12/05/2020 10:00:57 -0.33,-126.43 0.00,-128.03 180.86 80
2 12/05/2020 22:22:21 -0.78,-131.62 -0.03,-128.04 406.63 80
3 12/07/2020 22:10:10 -0.13,-128.67 -0.03,-128.08 66.39 80
4 12/09/2020 21:57:58 0.48,-125.71 -0.02,-128.12 273.62 80
5 12/10/2020 10:19:13 0.64,-130.86 0.05,-128.12 312.10 80
6 12/12/2020 10:07:02 -0.03,-127.91 0.05,-128.15 27.57 80
7 12/14/2020 09:54:50 -0.65,-124.95 0.05,-128.17 366.23 80
8 12/14/2020 22:16:13 -0.52,-130.13 -0.08,-128.19 221.50 80
9 12/16/2020 22:04:02 0.17,-127.18 -0.07,-128.20 116.66 80
10 12/17/2020 10:25:16 1.00,-132.32 0.11,-128.19 469.85 80
11 12/18/2020 21:51:50 0.80,-124.22 -0.07,-128.22 454.70 80
